Theta_e
320 320 320 321 320 319 319 319 318 318 319 319 319 319 320 320 318 314 306 313 317 327 321 310 309 309 308 306 308 307 299 296 298 303 310 315 312 313 314 311 310 312 307 308 308
319 318 318 319 319 319 319 318 317 318 318 319 318 318 319 319 313 308 316 326 327 330 308 307 305 308 304 304 303 301 295 297 302 307 314 313 311 308 308 305 305 306 308 307 307
317 317 317 318 319 318 318 317 317 318 318 318 318 318 318 317 304 304 324 328 329 327 308 310 309 307 302 302 302 299 298 301 311 315 310 308 307 306 306 302 306 305 303 305 305
316 316 316 316 318 317 316 316 316 317 317 318 318 318 318 314 294 306 329 330 329 312 309 308 307 303 301 301 302 298 304 308 313 311 309 307 308 306 306 307 310 307 306 305 304
316 316 316 316 316 316 315 315 315 316 316 317 318 318 313 303 304 312 328 327 315 312 307 306 305 303 300 301 302 302 307 309 312 309 307 309 306 306 303 308 309 307 306 304 304
315 315 315 315 315 315 315 314 314 314 315 316 317 318 307 298 309 312 309 309 310 310 309 307 307 306 304 302 303 308 307 307 308 307 307 306 303 305 303 307 306 306 304 305 304
315 314 314 314 314 314 314 313 313 314 315 316 317 316 307 303 308 309 311 307 309 311 307 308 309 308 308 305 308 308 304 305 304 305 306 306 300 302 306 307 304 304 305 304 304
315 314 313 313 313 313 313 312 313 314 315 316 317 311 300 312 310 312 307 309 310 309 310 310 314 311 308 308 306 303 302 298 303 305 305 305 299 303 305 304 302 302 303 303 298
314 314 314 313 313 313 312 312 313 315 315 316 309 305 300 314 310 313 311 309 308 309 309 317 312 307 306 301 297 298 293 295 298 305 303 301 299 302 305 304 302 301 302 302 296
314 314 314 313 312 312 311 312 313 313 316 318 314 302 304 304 310 312 308 308 305 307 307 307 303 300 299 297 293 295 294 293 294 299 301 299 300 299 303 303 302 301 301 299 295
314 314 313 313 312 312 309 308 307 305 308 300 302 302 305 310 312 308 308 306 305 304 298 301 297 294 297 299 300 298 295 294 295 299 301 301 303 298 301 302 299 300 301 296 295
313 313 313 313 312 312 307 307 310 310 303 311 311 310 313 311 306 309 307 302 301 296 298 297 294 300 301 301 300 299 296 296 298 300 301 297 299 298 301 303 303 302 301 296 295
312 312 312 311 311 308 307 312 317 314 301 305 309 307 309 311 306 307 305 301 299 297 296 293 297 302 301 298 298 297 295 296 296 300 299 296 296 297 301 303 303 304 303 298 295
311 312 311 311 307 303 308 315 317 314 292 295 304 306 309 310 304 308 306 302 299 297 296 296 300 300 297 296 297 293 299 300 299 297 292 296 290 295 297 299 301 302 300 297 295
310 311 311 311 302 303 311 312 317 312 284 302 304 309 308 305 303 302 305 302 296 298 297 296 297 296 296 298 299 297 302 299 298 293 291 292 290 293 295 294 297 300 300 297 294
310 311 308 307 303 307 309 313 311 290 284 299 303 302 301 302 302 303 301 303 301 297 296 297 298 298 298 301 301 302 298 296 293 291 286 291 289 289 291 294 296 301 297 296 294
309 310 307 310 304 307 311 308 288 286 299 294 297 301 299 298 299 300 298 294 292 290 290 294 295 298 301 296 299 297 291 285 284 283 283 292 289 290 294 298 299 297 296 294 294
309 307 307 308 305 306 309 301 285 293 295 299 298 298 296 298 298 298 295 293 295 293 289 288 288 295 299 298 295 293 292 286 282 282 285 291 286 290 297 298 298 298 296 294 292
307 302 302 303 306 308 302 289 291 296 296 296 297 294 293 296 297 296 294 294 295 296 290 290 291 298 298 299 298 294 291 294 290 288 284 286 290 292 297 295 295 294 294 290 291
303 303 304 309 312 307 296 291 297 301 299 298 292 296 292 295 293 294 294 297 296 298 298 295 289 296 298 299 298 295 296 289 288 282 281 285 286 286 292 294 294 292 289 290 291
302 299 308 313 306 297 285 292 298 301 300 296 294 294 296 294 294 294 294 297 297 298 298 294 292 293 297 294 292 293 291 291 290 288 282 280 284 294 294 296 293 292 291 290 290
301 295 310 302 287 289 288 295 298 298 301 298 298 297 295 296 295 294 294 296 299 298 293 294 293 288 291 297 297 296 293 292 286 286 287 285 284 297 296 297 294 292 292 291 291
299 301 310 303 281 285 290 293 297 295 298 298 296 298 297 294 292 296 296 299 300 297 294 294 291 285 287 293 296 293 294 293 292 290 285 282 285 298 297 295 295 292 291 290 289
299 294 299 302 294 288 288 288 290 298 299 299 298 298 295 293 295 294 296 299 300 299 301 299 293 288 284 289 293 290 292 292 290 285 285 286 288 293 294 293 292 290 290 289 289
300 296 297 291 293 294 295 294 290 292 297 298 295 295 294 290 292 293 296 297 300 301 298 297 290 292 293 293 293 291 290 290 289 288 286 288 289 292 294 293 292 291 291 290 289
297 298 295 292 293 294 293 294 295 294 296 294 293 297 296 293 293 292 296 295 294 297 295 296 289 290 289 292 292 289 290 291 291 291 290 290 289 294 294 293 292 292 291 290 290
300 303 299 295 290 291 291 296 296 298 298 298 296 296 296 297 298 297 298 298 297 294 294 293 290 287 284 291 289 285 289 290 290 291 290 287 290 294 292 293 292 291 292 291 291
Wind_Speed
11 12 13 13 14 15 15 16 17 17 16 17 18 20 21 19 20 3 6 12 6 6 5 5 4 4 3 3 4 3 5 3 6 6 6 6 6 3 4 8 2 0 7 6 21
12 13 14 14 14 15 16 17 16 16 17 17 19 20 21 18 4 6 13 11 8 10 4 5 4 6 2 4 3 5 4 10 9 5 7 9 8 9 6 4 1 3 7 19 20
11 12 14 15 15 15 16 17 17 17 16 17 18 20 21 13 5 7 4 8 11 9 2 1 2 3 3 3 5 5 7 7 6 7 8 9 6 3 11 4 9 11 17 20 19
11 12 13 15 16 16 17 17 18 18 17 17 18 20 25 2 4 2 9 10 4 2 1 3 1 2 2 3 4 3 9 8 5 6 8 10 9 7 9 6 7 15 24 22 19
10 11 13 16 16 16 17 18 18 18 17 16 16 17 9 5 11 4 7 5 3 1 4 3 2 4 2 4 3 6 4 3 3 8 4 9 6 5 5 4 12 18 19 20 17
10 11 12 14 15 16 17 19 19 18 17 16 14 15 2 5 5 3 6 5 4 4 4 5 5 4 3 4 4 4 2 3 4 5 6 6 1 2 2 9 13 19 19 17 17
10 11 12 14 15 16 18 19 20 20 17 15 12 3 2 18 3 8 6 3 3 5 4 4 3 3 1 4 1 4 4 4 1 5 6 7 3 11 7 11 15 16 16 15 14
10 11 12 14 16 17 19 21 22 21 17 12 4 2 10 5 4 10 2 7 5 6 6 7 5 4 3 1 7 3 5 1 3 6 3 7 11 7 13 16 14 13 14 14 9
10 11 12 14 16 18 21 23 25 19 10 4 3 2 12 10 4 8 7 6 4 1 4 2 4 2 4 5 5 6 4 5 6 9 3 6 10 4 10 13 14 14 14 12 11
11 11 13 15 17 19 23 24 13 5 3 4 3 3 6 4 6 6 4 2 1 4 5 5 6 3 4 4 7 8 4 4 6 5 6 6 15 3 11 13 15 14 12 9 12
11 12 13 15 17 18 15 6 7 5 4 6 3 5 6 8 6 6 4 4 4 8 2 3 3 7 6 4 3 2 3 6 6 6 6 14 19 10 12 10 10 13 12 9 12
10 12 13 15 17 20 2 5 3 4 9 8 12 12 13 4 7 7 4 4 4 4 0 6 4 7 3 3 4 3 4 10 10 7 9 3 12 5 12 16 21 17 15 15 13
10 11 13 16 19 5 3 3 7 3 2 9 7 6 5 9 7 10 2 1 3 3 3 6 7 4 3 4 4 6 5 8 11 3 2 2 8 4 10 14 7 11 11 15 18
10 11 12 18 3 4 1 8 7 1 4 7 4 9 6 6 6 6 6 4 1 7 4 4 5 5 5 6 7 7 9 10 4 3 4 2 6 6 3 9 12 7 12 16 18
11 10 11 6 3 1 5 9 7 4 4 1 4 2 4 10 3 3 4 4 5 4 6 9 2 2 4 8 6 9 3 2 3 2 2 5 2 8 5 5 2 10 13 17 18
10 9 11 4 1 6 7 7 4 6 2 2 4 5 5 1 1 4 3 3 3 4 2 7 3 3 7 3 2 2 4 7 5 3 3 5 5 7 3 5 7 3 15 17 19
8 7 5 2 3 5 6 4 6 3 4 2 2 3 2 3 1 1 2 0 3 3 3 5 5 5 4 3 3 6 6 5 6 5 6 3 1 9 4 9 6 12 16 16 17
7 6 3 4 3 6 4 5 1 3 5 5 3 2 4 4 3 3 4 5 5 4 2 2 9 3 2 6 9 4 7 7 4 3 6 6 5 6 5 8 12 12 14 15 14
7 1 2 4 3 2 5 3 6 4 4 5 4 4 4 3 3 6 4 3 2 5 4 3 5 5 0 2 4 3 2 3 5 1 3 4 6 2 8 10 10 12 13 12 13
2 2 3 3 5 4 5 4 4 4 6 3 3 2 4 5 3 6 3 3 5 1 2 2 2 2 6 4 5 4 4 3 4 2 4 4 5 4 5 3 7 8 11 12 13
1 4 3 3 4 6 5 7 5 7 5 2 1 3 1 2 4 4 3 3 2 6 4 2 2 7 4 6 3 6 5 4 4 4 3 2 6 5 14 9 12 10 11 13 12
1 3 3 4 4 1 3 6 3 5 5 4 3 4 3 4 5 4 3 2 7 2 3 4 3 1 3 5 4 6 2 4 5 5 1 3 6 9 9 8 12 12 11 10 10
3 2 2 6 3 2 5 3 2 3 4 5 4 3 3 3 6 3 2 2 8 5 2 3 5 3 6 7 7 7 6 3 4 3 2 3 7 7 10 11 9 11 10 11 12
2 3 3 3 1 3 3 3 3 2 3 2 2 5 5 7 5 4 3 5 5 3 3 5 4 4 5 5 3 4 6 6 5 4 2 2 6 6 8 8 8 9 10 10 9
0 4 4 4 4 4 3 2 4 2 1 4 5 4 3 3 3 3 3 2 6 9 6 6 4 4 2 2 8 4 6 7 7 3 3 5 4 4 4 6 5 8 9 10 9
3 2 1 2 2 7 2 4 6 4 4 0 7 2 4 4 2 3 4 2 1 6 5 4 1 2 5 6 10 7 7 7 5 4 3 3 3 2 5 8 6 7 8 8 8
2 2 2 1 3 6 5 5 5 5 4 3 7 7 7 4 3 3 3 3 5 4 2 3 4 4 4 4 2 7 6 3 3 2 3 3 2 3 3 4 4 6 8 10 10
Wind_Direction
333 335 333 332 332 328 329 330 331 331 332 331 330 326 322 327 316 154 241 220 182 149 132 139 162 146 84 177 135 130 73 217 253 211 210 173 136 55 55 122 89 179 152 162 137
330 328 328 326 325 324 324 325 325 327 330 331 330 326 321 332 313 263 241 219 185 145 171 207 186 156 154 190 168 124 149 216 212 195 192 177 149 139 120 125 67 58 70 127 140
327 324 324 323 320 322 319 320 322 324 329 328 327 325 321 324 326 255 329 217 172 167 233 223 145 175 161 153 199 182 206 211 248 206 140 138 129 123 125 222 199 181 148 149 154
325 323 321 322 321 318 318 319 318 319 323 324 327 324 321 272 285 313 56 74 41 256 234 206 151 165 194 210 199 175 238 196 191 152 119 163 135 167 182 211 167 157 158 156 169
317 319 320 319 319 315 318 315 314 314 317 318 325 328 348 350 252 292 106 115 140 250 214 225 216 163 210 223 257 193 218 188 131 135 112 132 197 196 216 40 116 137 156 169 172
312 314 314 314 314 315 314 310 309 310 308 312 323 321 327 277 245 214 0 338 208 169 263 177 213 211 239 241 161 208 150 137 128 148 151 126 314 5 162 128 134 150 168 177 175
309 310 312 313 314 311 310 309 305 301 301 307 309 282 238 238 276 316 327 245 198 188 254 213 189 166 200 293 164 112 88 19 183 189 180 127 328 237 142 150 152 167 176 180 176
309 311 312 313 314 312 309 304 299 296 298 296 269 217 251 252 296 289 153 298 247 221 217 247 190 184 172 281 17 101 54 189 254 142 230 138 255 197 163 154 169 178 187 185 161
309 312 314 314 314 311 308 303 296 295 276 220 145 177 267 301 262 268 174 231 292 231 243 101 70 82 23 87 14 3 233 224 304 196 133 182 255 216 167 165 179 189 195 180 146
312 317 319 318 317 316 313 300 289 296 114 178 261 8 277 300 301 288 207 182 319 357 17 58 51 80 45 89 218 223 240 267 249 225 179 210 254 179 177 184 194 194 191 164 152
316 321 321 320 318 320 335 354 11 354 22 214 228 260 293 323 317 336 323 120 97 56 188 6 87 220 228 224 5 196 202 253 258 239 178 230 242 197 186 209 202 201 190 144 147
317 321 323 322 318 319 302 58 32 258 305 254 250 254 269 81 302 319 354 122 111 190 67 11 254 241 221 209 244 267 276 279 285 252 173 16 263 154 188 222 206 194 183 154 139
319 323 328 320 316 338 338 72 307 333 255 290 225 240 211 142 218 266 144 21 135 161 175 183 241 41 190 275 245 252 218 255 245 8 348 101 313 207 228 241 190 207 177 158 149
327 330 332 326 33 328 287 326 322 206 39 274 254 259 181 158 278 233 188 146 37 201 203 232 270 237 268 255 176 259 226 242 210 101 235 140 274 291 251 247 219 172 159 157 146
325 335 336 345 278 67 310 323 304 61 31 237 212 229 172 153 220 12 213 76 195 200 106 242 270 262 259 235 157 227 163 177 140 193 58 323 54 266 338 316 302 203 157 158 148
326 337 346 61 303 253 314 311 54 44 282 326 166 180 120 223 284 341 65 73 160 174 203 242 250 208 228 260 188 99 54 37 49 77 6 247 150 294 327 300 314 11 132 142 144
322 340 334 316 229 331 322 47 42 134 312 296 187 154 137 202 167 137 350 55 183 127 334 318 266 275 198 215 20 73 59 341 344 2 232 297 35 243 329 345 277 134 140 137 140
321 328 252 236 268 358 25 53 229 250 265 328 1 89 164 179 208 136 73 30 1 58 110 104 324 330 28 207 199 172 149 155 229 227 258 317 263 281 54 34 65 100 115 122 124
316 329 291 267 206 150 73 88 224 243 279 338 358 38 339 318 148 81 59 13 297 30 175 152 281 302 278 261 132 194 160 179 122 36 43 269 308 108 52 45 74 104 115 113 118
19 8 282 315 142 61 79 225 252 248 324 53 88 34 39 335 84 76 32 315 322 348 193 353 300 0 294 22 17 92 157 31 11 271 282 296 303 280 329 165 122 118 109 114 118
14 65 275 76 60 49 156 227 282 287 300 59 61 60 61 16 63 67 346 282 337 320 73 333 98 295 27 15 281 14 13 36 114 132 196 331 276 355 288 185 167 127 127 136 140
109 88 308 54 60 39 176 203 303 293 326 2 92 71 64 43 54 78 95 358 348 296 47 347 123 18 76 310 22 88 60 110 110 290 107 147 275 343 6 79 113 122 130 119 113
127 112 348 85 161 244 274 270 274 324 321 357 38 41 35 81 94 100 128 1 356 52 55 353 12 21 358 348 0 45 345 333 101 64 19 85 283 32 52 73 93 113 110 109 119
112 106 338 49 146 164 198 246 229 242 266 332 74 58 61 32 27 132 114 18 2 56 39 94 59 136 170 227 263 42 3 3 85 73 303 242 293 15 55 84 92 105 121 128 129
161 233 181 197 243 210 205 219 179 225 186 7 49 36 117 73 55 76 50 77 12 347 36 86 61 36 40 7 76 68 36 30 62 321 98 319 0 350 144 135 124 126 131 131 133
148 171 3 189 155 147 194 228 199 212 153 0 106 50 95 119 174 157 127 109 182 355 55 18 14 6 7 41 84 72 15 39 50 17 86 17 1 36 86 102 133 143 130 129 135
253 283 133 194 122 124 215 225 207 162 34 107 136 104 83 149 135 79 84 121 156 126 81 76 105 55 297 12 27 19 341 46 59 23 301 0 308 131 98 123 143 146 156 158 150